FW9097 Weather Reports


time (UTC)temp
C
wind
direction
speed
KPH
gust
KPH
rain 1hr
cm
rain 24hr
cm
rain mn
cm
humidity
%
barometer
mb
20260507051544 11 248 0.0 4.8 0.00 0.00 0.00 80 1021.7
20260507050047 12 271 1.6 4.8 0.00 0.00 0.00 80 1021.8
20260507044549 12 277 1.6 8.0 0.00 0.00 0.00 80 1021.6
20260507043042 12 269 0.0 4.8 0.00 0.00 0.00 81 1021.7
20260507041549 12 236 1.6 9.7 0.00 0.00 0.00 81 1021.7
20260507040051 12 237 1.6 8.0 0.00 0.00 0.00 81 1021.5
20260507034547 12 273 3.2 9.7 0.00 0.00 0.00 80 1021.5
20260507033051 12 250 3.2 14.5 0.00 0.00 0.00 80 1021.5
20260507031554 12 235 0.0 14.5 0.00 0.00 0.00 81 1021.5
20260507030049 12 5 1.6 11.3 0.00 0.00 0.00 80 1021.3
20260507024601 12 299 3.2 16.1 0.00 0.00 0.00 79 1021.1
20260507023047 12 252 1.6 12.9 0.00 0.00 0.00 80 1021.1
20260507021547 12 181 1.6 9.7 0.00 0.00 0.00 80 1021.1
20260507020045 13 61 1.6 16.1 0.00 0.00 0.00 80 1021.1
20260507014601 13 308 3.2 14.5 0.00 0.00 0.00 79 1021.2
20260507013050 13 257 3.2 9.7 0.00 0.00 0.00 78 1021.0
20260507011547 13 269 1.6 6.4 0.00 0.00 0.00 78 1021.3
20260507010051 13 219 1.6 9.7 0.00 0.00 0.00 77 1021.1
20260507004546 13 271 1.6 11.3 0.00 0.00 0.00 78 1021.2
20260507003044 14 236 3.2 12.9 0.00 0.00 0.00 77 1021.1
20260507001552 14 221 3.2 16.1 0.00 0.00 0.00 77 1021.0
20260507000051 13 275 4.8 12.9 0.00 0.00 0.00 78 1021.1
20260506234548 13 254 6.4 20.9 0.00 0.00 0.00 79 1021.3
20260506233055 13 27 4.8 16.1 0.00 0.00 0.00 80 1021.4
20260506231548 13 186 3.2 9.7 0.00 0.00 0.00 80 1021.4
20260506230042 13 214 3.2 12.9 0.00 0.00 0.00 80 1021.4
20260506224549 13 194 1.6 8.0 0.00 0.00 0.00 79 1021.4
20260506223047 13 208 3.2 12.9 0.00 0.00 0.00 78 1021.4
20260506221546 13 222 3.2 12.9 0.00 0.00 0.00 79 1021.5
20260506220049 13 267 3.2 9.7 0.00 0.00 0.00 79 1021.5
20260506214555 13 0 3.2 14.5 0.00 0.00 0.00 78 1021.5
20260506213044 13 223 6.4 14.5 0.00 0.00 0.00 77 1021.4
20260506211541 13 333 1.6 8.0 0.00 0.00 0.00 79 1021.6
20260506210048 13 244 1.6 12.9 0.00 0.00 0.00 79 1021.5
20260506204552 13 330 1.6 9.7 0.00 0.00 0.00 80 1021.5
20260506203046 13 246 4.8 16.1 0.00 0.00 0.00 79 1021.5
20260506201546 13 294 0.0 11.3 0.00 0.00 0.00 80 1021.3
20260506194551 13 281 3.2 12.9 0.00 0.00 0.00 80 1021.3
20260506193053 12 242 3.2 11.3 0.00 0.00 0.00 80 1021.2
20260506191557 12 136 3.2 14.5 0.00 0.00 0.00 80 1021.3
20260506190046 12 188 1.6 12.9 0.00 0.00 0.00 80 1021.1
20260506184551 12 235 3.2 9.7 0.00 0.00 0.00 79 1021.1
20260506183053 13 348 1.6 6.4 0.00 0.00 0.00 80 1021.1
20260506181558 13 246 1.6 12.9 0.00 0.00 0.00 78 1021.0
20260506180110 13 217 1.6 11.3 0.00 0.00 0.00 77 1020.9
20260506174546 13 0 1.6 12.9 0.00 0.00 0.00 79 1020.8
20260506173106 13 219 3.2 16.1 0.00 0.00 0.00 79 1020.7
20260506171545 12 306 6.4 16.1 0.00 0.00 0.00 80 1020.7
20260506170053 12 190 3.2 11.3 0.00 0.00 0.00 80 1020.8
20260506164549 12 238 3.2 11.3 0.00 0.00 0.00 81 1020.7
20260506163053 12 232 1.6 12.9 0.00 0.00 0.00 83 1020.9
20260506161554 12 208 1.6 8.0 0.00 0.00 0.00 85 1020.6
20260506160049 12 0 0.0 6.4 0.00 0.00 0.00 84 1020.4
20260506154551 12 0 1.6 9.7 0.00 0.00 0.00 85 1020.4
20260506153049 11 0 1.6 8.0 0.00 0.00 0.00 86 1020.4
20260506151549 11 203 1.6 6.4 0.00 0.00 0.00 87 1020.5
20260506150056 11 0 0.0 6.4 0.00 0.00 0.00 87 1020.5
20260506144602 11 209 0.0 4.8 0.00 0.00 0.00 87 1020.3
20260506143050 11 241 1.6 6.4 0.00 0.00 0.00 87 1020.3
20260506141543 11 246 1.6 4.8 0.00 0.00 0.00 88 1020.2
20260506140051 11 221 0.0 3.2 0.00 0.00 0.00 88 1020.1
20260506134548 11 0 0.0 4.8 0.00 0.00 0.00 88 1019.8
20260506133051 11 0 0.0 4.8 0.00 0.00 0.00 88 1019.9
20260506131549 11 0 0.0 3.2 0.00 0.00 0.00 88 1020.0
20260506130051 10 271 0.0 4.8 0.00 0.00 0.00 88 1019.9
20260506124549 10 240 1.6 8.0 0.00 0.00 0.00 88 1019.7
20260506123051 11 0 0.0 6.4 0.00 0.00 0.00 88 1019.5
20260506121549 11 0 0.0 4.8 0.00 0.00 0.00 88 1019.6
20260506120048 11 0 0.0 4.8 0.00 0.00 0.00 88 1019.5
20260506114548 11 0 0.0 4.8 0.00 0.00 0.00 88 1019.3
20260506113047 11 0 0.0 4.8 0.00 0.00 0.00 88 1019.3
20260506111543 11 0 0.0 6.4 0.00 0.00 0.00 88 1019.2
20260506110051 11 0 0.0 4.8 0.00 0.00 0.00 88 1019.1
20260506104554 11 246 1.6 3.2 0.00 0.00 0.00 88 1019.0
20260506103049 11 198 1.6 6.4 0.00 0.00 0.00 88 1018.9
20260506101548 11 0 0.0 6.4 0.00 0.00 0.00 88 1018.8
20260506100358 11 186 0.0 8.0 0.00 0.00 0.00 88 1018.6
20260506094546 11 0 0.0 6.4 0.00 0.00 0.00 89 1018.6
20260506093047 11 0 0.0 3.2 0.00 0.00 0.00 89 1018.5
20260506091548 11 220 0.0 0.0 0.00 0.00 0.00 89 1018.5
20260506090048 10 0 0.0 0.0 0.00 0.00 0.00 90 1018.4
20260506084555 10 0 0.0 3.2 0.00 0.00 0.00 90 1018.5
20260506083056 10 0 0.0 0.0 0.00 0.00 0.00 90 1018.1
20260506081546 10 0 0.0 0.0 0.00 0.00 0.00 91 1017.9
20260506080105 10 0 0.0 0.0 0.00 0.00 0.00 90 1017.8
20260506073100 10 0 0.0 0.0 0.00 0.00 0.00 89 1017.6
20260506071549 10 0 0.0 0.0 0.00 0.00 0.00 89 1017.5
20260506061548 11 0 0.0 1.6 0.00 0.00 0.00 88 1017.1